Location: Unspecified
(0.0000°N, 0.0000°E)
Time: 20:28:06
(UTC+00:00)

BlueWalker 3 - Pass Details

Date: 26 May 2023
Orbit: 494 x 513 km, 53.2° (Epoch: 05 June)

Event Time Altitude Azimuth Distance (km) Brightness Sun altitude
Rises 18:57:55 0° 212° (SSW) 2,567 5.7 -14.2°
Reaches altitude 10° 19:00:06 10° 210° (SSW) 1,683 4.7 -14.7°
Maximum altitude 19:03:54 78° 124° (SE) 505 1.7 -15.5°
Drops below altitude 10° 19:07:41 10° 37° (NE) 1,678 4.4 -16.4°
Sets 19:09:51 0° 36° (NE) 2,559 5.4 -16.9°
